STARLINK-35280, 66025

Orbit data source: Space-Track

STARLINK-35280, 66025 is a payload satellite owned by SpaceX/Seattle (US) in LEO that was launched on Thu, 16 Oct 2025 UTC via an FALCON 9 launch vehicle from the Air Force Eastern Test Range (AFETR). Payload-class satellites include a variety of spacecraft equipped with specific instruments for various scientific and technological missions. These include communications satellites like Starlink; space stations such as the ISS; scientific satellites like the Hubble; Earth observation satellites from companies like Planet Labs, Umbra, and HawkEye 360; GPS; miniature CubeSats for education and research; and military/defense satellites.

Loading next visibility...
Identifier
66025, 2025-232W
Orbit
LEO
Country
Flag of USUS
Related business
Manufacturer
SpaceX/Seattle
Mission
Operational Commercial Communications
Bus & Motor
STARLINK V2MO, Unknown motor
Mass
575 kg wet, ~530 kg dry
Launch date (UTC)
2025-10-16 (8 months ago)
Launch vehicle
FALCON 9
Launch site
Air Force Eastern Test Range (AFETR)
Object type
Payload
Rocket body
Debris
Shape & HBR
Box + 2 Pan, 17.7 m
Radar Cross Section
36.964 m², Large (>1 m²)

Expand to show TLE details & history
Last TLE update: 19 hours ago

TLE from 19 hours ago
0 STARLINK-35280
1 66025U 25232W   26171.19656456  .00011750  00000-0  40813-3 0  9995
2 66025  53.1613 347.4992 0001786  88.6412 271.4793 15.30206555 39130
Epoch: 2026-06-20T04:43Z
TLE epoch observation values (Epoch: 2026-06-20T04:43:03.177Z)
Latitude
-0.00008°
Longitude
8.32125°
Altitude
476.064 km
Speed
7.629 km/s
True Right ascension
23h 09m 59s
True Declination
0° 00' 00"
Sunlit
Object was in daylight at epoch
Visualization orbit readout
Latitude
Unknown
Longitude
Unknown
Altitude
Unknown
Speed
Unknown
Apparent Right ascension
Unknown
Apparent Declination
Unknown
Sunlit
N/A
Visualization observer readout
Local Sidereal Time
10:18:44
Azimuth
Unknown
Elevation
Unknown
Doppler factor
Unknown
Orbital elements
Apogee altitude
476.676 km
Perigee altitude
474.228 km
Semi-major axis
6,853.589 km
Eccentricity
0.00018
Inclination
53.1613°
RAAN
347.4992°
Arg. of periapsis
88.6412°
True anomaly
271.45884°
Mean anomaly
271.4793°
Eccentric anomaly
271.46907°
Mean motion
3.82531 °/min
Orbital period
94.11 mins
BSTAR
0.00040813
Loading maneuver chart data...
Computing Atmospheric mass density...
Loading historical data...
Loading historical data...
Loading historical data...
Loading historical data...
Loading historical data...
Loading historical data...
Loading historical data...

Documentation

Showing up to 5 results
|